STARLINK-32845, 62815

Orbit data source: Space-Track

STARLINK-32845, 62815 is a payload satellite owned by SpaceX/Seattle (US) in LEO that was launched on Fri, 24 Jan 2025 UTC via an FALCON 9 launch vehicle from the Air Force Western Test Range (AFWTR). Payload-class satellites include a variety of spacecraft equipped with specific instruments for various scientific and technological missions. These include communications satellites like Starlink; space stations such as the ISS; scientific satellites like the Hubble; Earth observation satellites from companies like Planet Labs, Umbra, and HawkEye 360; GPS; miniature CubeSats for education and research; and military/defense satellites.

Loading next visibility...
Identifier
62815, 2025-018K
Orbit
LEO
Country
Flag of USUS
Related business
Manufacturer
SpaceX/Seattle
Mission
Operational Commercial Communications
Bus & Motor
STARLINK V2M, Unknown motor
Mass
730 kg wet, ~700 kg dry
Launch date (UTC)
2025-01-24 (2 years ago)
Launch vehicle
FALCON 9
Launch site
Air Force Western Test Range (AFWTR)
Object type
Payload
Rocket body
Debris
Shape & HBR
Box + 2 Pan, 17.7 m
Radar Cross Section
33.884 m², Large (>1 m²)

Expand to show TLE details & history
Last TLE update: 18 hours ago

TLE from 18 hours ago
0 STARLINK-32845
1 62815U 25018K   26237.40705086  .00055656  00000-0  15396-2 0  9991
2 62815  53.1570 244.2314 0007502  28.0596 332.0811 15.36474670 89029
Epoch: 2026-08-25T09:46Z
TLE epoch observation values (Epoch: 2026-08-25T09:46:09.194Z)
Latitude
0.00003°
Longitude
124.01826°
Altitude
452.916 km
Speed
7.644 km/s
True Right ascension
16h 16m 55s
True Declination
0° 00' 00"
Sunlit
Object was in daylight at epoch
Visualization orbit readout
Latitude
Unknown
Longitude
Unknown
Altitude
Unknown
Speed
Unknown
Apparent Right ascension
Unknown
Apparent Declination
Unknown
Sunlit
N/A
Visualization observer readout
Local Sidereal Time
19:09:01
Azimuth
Unknown
Elevation
Unknown
Doppler factor
Unknown
Orbital elements
Apogee altitude
461.929 km
Perigee altitude
451.674 km
Semi-major axis
6,834.938 km
Eccentricity
0.00075
Inclination
53.157°
RAAN
244.2314°
Arg. of periapsis
28.0596°
True anomaly
332.04082°
Mean anomaly
332.0811°
Eccentric anomaly
332.06096°
Mean motion
3.84097 °/min
Orbital period
93.73 mins
BSTAR
0.0015396
Loading maneuver chart data...
Computing Atmospheric mass density...
Loading historical data...
Loading historical data...
Loading historical data...
Loading historical data...
Loading historical data...
Loading historical data...
Loading historical data...

Documentation

Showing up to 5 results
|